Tracking 19563 objects as of 20-Mar-2019
HD Live streaming from Space Station
objects crossing your sky now

TYVAK 53B

Track TYVAK 53B now!
10-day predictions


NORAD ID: 42795
Int'l Code: 2017-036AG
Perigee: 499.2 km
Apogee: 507.8 km
Inclination: 97.3 °
Period: 94.5 minutes
Semi major axis: 6874 km
RCS: Unknown
Launch date: June 23, 2017
Source: United States (US)
Launch site: SRIHARIKOTA (SRI)
aabbcc
Your satellite tracking list
Your tracking list is empty




NASA's NSSDC Master Catalog

Two Line Element Set (TLE):
1 42795U 17036AG  19078.41402642 +.00002263 +00000-0 +98746-4 0  9993
2 42795 097.3459 137.4269 0006199 356.4341 003.6851 15.23142549096407
Source of the keplerian elements: AFSPC